This demonstration page uses our WeatherBlox Daily Observations layout. Learn more.

Hourly Observations for April 21, 2019

Temp ( °F °C ) Dew Point ( °F °C ) Humidity (%) Winds ( mph kmh ) Pressure ( in mb ) Visibility ( mi km ) Precip ( " mm )
12:15 am 00:15 Cloudy 59 15 43 6 55 55 S 7 11 29.83 1010 10 16.09344 0 0
12:35 am 00:35 Cloudy 59 15 43 6 55 55 S 7 11 29.85 1011 10 16.09344 0 0
12:55 am 00:55 Cloudy 59 15 43 6 55 55 S 6 9 29.85 1011 10 16.09344 0 0
1:15 am 01:15 Cloudy 59 15 43 6 55 55 S 5 7 29.85 1011 10 16.09344 0 0
1:35 am 01:35 Cloudy 57 14 45 7 63 63 S 5 7 29.85 1011 10 16.09344 0 0
1:55 am 01:55 Cloudy 55 13 45 7 67 67 S 6 9 29.85 1011 10 16.09344 0 0
2:15 am 02:15 Cloudy 55 13 45 7 67 67 S 6 9 29.85 1011 10 16.09344 0 0
2:35 am 02:35 Cloudy 55 13 45 7 67 67 SW 3 6 29.85 1011 10 16.09344 0 0
2:50 am 02:50 Cloudy 55 13 45 7 67 67 SW 3 6 29.85 1011 10 16.09344 0 0
3:10 am 03:10 Partly Cloudy 54 12 45 7 72 72 SW 6 9 29.85 1011 10 16.09344 0 0
3:35 am 03:35 Clear 54 12 45 7 72 72 SSE 3 6 29.85 1011 10 16.09344 0 0
3:55 am 03:55 Clear 54 12 45 7 72 72 S 6 9 29.88 1012 10 16.09344 0 0
4:15 am 04:15 Clear 52 11 45 7 77 77 SSW 8 13 29.88 1012 10 16.09344 0 0
4:35 am 04:35 Clear 52 11 45 7 77 77 SSW 6 9 29.88 1012 10 16.09344 0 0
4:55 am 04:55 Clear 50 10 45 7 82 82 SW 5 7 29.88 1012 10 16.09344 0 0
5:15 am 05:15 Clear 50 10 45 7 82 82 SW 3 6 29.91 1013 10 16.09344 0 0
5:35 am 05:35 Clear 50 10 45 7 82 82 SSW 3 6 29.91 1013 10 16.09344 0 0
5:55 am 05:55 Clear 50 10 45 7 82 82 SSW 3 6 29.91 1013 10 16.09344 0 0
6:15 am 06:15 Clear 50 10 45 7 82 82 S 5 7 29.91 1013 10 16.09344 0 0
6:35 am 06:35 Sunny 48 9 45 7 87 87 S 5 7 29.94 1014 10 16.09344 0 0
6:55 am 06:55 Sunny 46 8 45 7 93 93 SW 5 7 29.97 1015 10 16.09344 0 0
7:15 am 07:15 Sunny 48 9 45 7 87 87 Calm 29.94 1014 10 16.09344 0 0
7:30 am 07:30 Sunny 50 10 45 7 82 82 Calm 29.94 1014 10 16.09344 0 0
7:55 am 07:55 Sunny 50 10 46 8 88 88 WSW 3 6 29.97 1015 10 16.09344 0 0
8:15 am 08:15 Sunny 50 10 46 8 88 88 Calm 29.97 1015 10 16.09344 0 0
8:35 am 08:35 Sunny 52 11 46 8 82 82 Calm 29.97 1015 10 16.09344 0 0
8:55 am 08:55 Sunny 54 12 46 8 77 77 WSW 3 6 29.97 1015 10 16.09344 0 0
9:15 am 09:15 Sunny 55 13 46 8 72 72 Calm 30 1016 10 16.09344 0 0
9:35 am 09:35 Sunny 55 13 46 8 72 72 NW 3 6 30 1016 10 16.09344 0 0
9:55 am 09:55 Sunny 57 14 46 8 67 67 NNW 7 11 30 1016 10 16.09344 0 0
10:15 am 10:15 Sunny 59 15 46 8 63 63 NNW 8 13 30 1016 10 16.09344 0 0
10:35 am 10:35 Sunny 59 15 46 8 63 63 N 6 9 30 1016 10 16.09344 0 0
10:55 am 10:55 Sunny 61 16 46 8 59 59 N 3 6 30 1016 10 16.09344 0 0
11:15 am 11:15 Sunny 61 16 48 9 63 63 NNW 3 6 30 1016 10 16.09344 0 0
11:35 am 11:35 Partly Cloudy 63 17 46 8 56 56 W 5 7 30.03 1017 10 16.09344 0 0
11:55 am 11:55 Partly Cloudy 63 17 46 8 56 56 NW 7 11 30.03 1017 10 16.09344 0 0
12:15 pm 12:15 Partly Cloudy 63 17 46 8 56 56 W 5 7 30.03 1017 10 16.09344 0 0
12:35 pm 12:35 Partly Cloudy 64 18 50 10 60 60 NW 8 13 30 1016 10 16.09344 0 0
12:55 pm 12:55 Mostly Cloudy 63 17 46 8 56 56 NW 6 9 30 1016 10 16.09344 0 0
1:15 pm 13:15 Mostly Cloudy 64 18 46 8 52 52 NNW 8 13 30 1016 10 16.09344 0 0
1:35 pm 13:35 Cloudy 64 18 46 8 52 52 N 7 11 30 1016 10 16.09344 0 0
1:55 pm 13:55 Mostly Cloudy 66 19 48 9 52 52 NNW 6 9 30 1016 10 16.09344 0 0
2:15 pm 14:15 Mostly Cloudy 64 18 46 8 52 52 NNE 6 9 30 1016 10 16.09344 0 0
2:35 pm 14:35 Partly Cloudy 64 18 46 8 52 52 NNW 5 7 30 1016 10 16.09344 0 0
2:55 pm 14:55 Sunny 68 20 46 8 46 46 WNW 6 9 30 1016 10 16.09344 0 0
3:15 pm 15:15 Partly Cloudy 68 20 46 8 46 46 NNE 5 7 30 1016 10 16.09344 0 0
3:35 pm 15:35 Partly Cloudy 68 20 46 8 46 46 NNW 13 20 30 1016 10 16.09344 0 0
3:55 pm 15:55 Mostly Cloudy 68 20 50 10 53 53 NNW 16 26 30 1016 10 16.09344 0 0
4:15 pm 16:15 Cloudy 64 18 46 8 52 52 NNW 13 20 30 1016 10 16.09344 0 0
4:35 pm 16:35 Cloudy 64 18 48 9 56 56 NW 12 19 30.03 1017 10 16.09344 0 0
4:55 pm 16:55 Cloudy 64 18 46 8 52 52 NNW 10 17 30.03 1017 10 16.09344 0 0
5:15 pm 17:15 Cloudy 64 18 48 9 56 56 NW 12 19 30.03 1017 10 16.09344 0 0
5:35 pm 17:35 Cloudy 66 19 46 8 49 49 N 7 11 30.03 1017 10 16.09344 0 0
5:55 pm 17:55 Cloudy 68 20 46 8 46 46 N 10 17 30.03 1017 10 16.09344 0 0
6:15 pm 18:15 Cloudy 64 18 46 8 52 52 N 10 17 30.03 1017 10 16.09344 0 0
6:35 pm 18:35 Cloudy 64 18 46 8 52 52 N 8 13 30.06 1018 10 16.09344 0 0
6:55 pm 18:55 Cloudy 64 18 46 8 52 52 N 8 13 30.06 1018 10 16.09344 0 0
7:15 pm 19:15 Cloudy 64 18 46 8 52 52 N 6 9 30.06 1018 10 16.09344 0 0
7:35 pm 19:35 Cloudy 63 17 46 8 56 56 N 5 7 30.06 1018 10 16.09344 0 0
7:55 pm 19:55 Partly Cloudy 61 16 48 9 63 63 NW 10 17 30.06 1018 10 16.09344 0 0
8:15 pm 20:15 Partly Cloudy 61 16 50 10 68 68 NNW 9 15 30.06 1018 10 16.09344 0 0
8:35 pm 20:35 Partly Cloudy 61 16 48 9 63 63 NNW 9 15 30.09 1019 10 16.09344 0 0
8:55 pm 20:55 Mostly Cloudy 61 16 48 9 63 63 N 5 7 30.09 1019 10 16.09344 0 0
9:15 pm 21:15 Cloudy 59 15 48 9 68 68 N 6 9 30.09 1019 10 16.09344 0 0
9:35 pm 21:35 Mostly Cloudy 59 15 50 10 72 72 NNW 8 13 30.09 1019 10 16.09344 0 0
9:55 pm 21:55 Partly Cloudy 59 15 48 9 68 68 N 7 11 30.09 1019 10 16.09344 0 0
10:15 pm 22:15 Partly Cloudy 59 15 48 9 68 68 NNW 9 15 30.12 1020 10 16.09344 0 0
10:35 pm 22:35 Mostly Cloudy 59 15 48 9 68 68 NNW 13 20 30.12 1020 10 16.09344 0 0
10:55 pm 22:55 Mostly Cloudy 59 15 48 9 68 68 N 12 19 30.12 1020 10 16.09344 0 0
11:15 pm 23:15 Mostly Cloudy 57 14 46 8 67 67 N 9 15 30.12 1020 10 16.09344 0 0
11:35 pm 23:35 Mostly Cloudy 57 14 46 8 67 67 N 9 15 30.12 1020 10 16.09344 0 0
11:55 pm 23:55 Mostly Cloudy 57 14 46 8 67 67 N 6 9 30.12 1020 10 16.09344 0 0

Powered by AerisWeather